Regional Weather Roundup
Issued by NWS

Home | Current Version | Previous Version | Text Only | Print | Product List | Glossary Off
Versions: 1 2 3 4 5 6 7 8 9 10 11 12 13 14 15 16 17 18 19 20 21 22 23 24 25 26 27 28 29 30 31 32 33 34 35 36 37 38 39 40 41 42 43 44 45 46 47 48 49 50

000
ASUS43 KIND 161800
RWRIN

WEATHER ROUNDUP FOR INDIANA
NATIONAL WEATHER SERVICE INDIANAPOLIS IN
200 PM EDT MON OCT 16 2017

NOTE: "FAIR" INDICATES FEW OR NO CLOUDS BELOW 12,000 FEET WITH NO
SIGNIFICANT WEATHER AND/OR OBSTRUCTIONS TO VISIBILITY.

* - STATION DOES NOT REPORT WEATHER SUCH AS PRECIPITATION OR FOG.

+ - STATION NOT QUALITY CONTROLLED BY THE NATIONAL WEATHER SERVICE.
    USE DATA WITH CAUTION...ESPECIALLY DEWPOINT AND RELATIVE
    HUMIDITY OBSERVATIONS.

INZ001>003-010>013-019-020-161900-
NORTHWEST INDIANA

CITY           SKY/WX    TMP DP  RH WIND       PRES   REMARKS
GARY /AIRPORT/ MOSUNNY   61  34  36 W12       30.31F
KNOX *+        SUNNY     59  37  44 W9        30.31F
MICHIGAN CITY+ SUNNY     57  37  47 W3        30.31F
MONTICELLO +   SUNNY     60  35  38 W6        30.31F
6HR MIN TEMP:  39; 6HR MAX TEMP:  60;


$$

LMZ046-743>745-161900-
SOUTHERN LAKE MICHIGAN

STATION/POSITION TIME  TEMP    WIND        PRES    WAVE
                       AIR SEA DIR/SP/G            HT
                 (UTC) (F)     (DEG/KT/KT) (MB)    (FT)
BURNS HARBOR     1740   57     270/  8/ 10 1026.8F
MICHIGAN CITY    1730   53     240/  8/  9   N/A
5NW MICH CITY    1740   54 57  250/  6/ 10   N/A     3

$$

INZ004-005-014>016-021>024-161900-
NORTH CENTRAL INDIANA

CITY           SKY/WX    TMP DP  RH WIND       PRES   REMARKS
ELKHART        MOSUNNY   57  39  51 W9        30.30F
GOSHEN         PTSUNNY   55  40  56 NW12      30.30F
6HR MIN TEMP:  42; 6HR MAX TEMP:  58;

PERU/GRISSOM   SUNNY     58  37  45 NW9       30.31F
6HR MIN TEMP:  40; 6HR MAX TEMP:  58;

SOUTH BEND     MOSUNNY   56  38  50 W8        30.31F
6HR MIN TEMP:  40; 6HR MAX TEMP:  57;

WARSAW +       PTSUNNY   57  41  54 W8        30.31F

$$

INZ006>009-017-018-025>027-161900-
NORTHEAST INDIANA

CITY           SKY/WX    TMP DP  RH WIND       PRES   REMARKS
AUBURN +       PTSUNNY   55  37  50 NW12      30.30F
FORT WAYNE     MOSUNNY   59  38  45 W8        30.31F
6HR MIN TEMP:  45; 6HR MAX TEMP:  59;

KENDALLVILLE + PTSUNNY   54  42  62 NW5       30.30F

$$

INZ028-029-035-036-043>045-051>053-161900-
WEST CENTRAL INDIANA

CITY           SKY/WX    TMP DP  RH WIND       PRES   REMARKS
LAFAYETTE      MOSUNNY   59  37  44 W6        30.33F
6HR MIN TEMP:  38; 6HR MAX TEMP:  60;

TERRE HAUTE    SUNNY     60  35  39 VRB5      30.36F
6HR MIN TEMP:  39; 6HR MAX TEMP:  60;


$$

INZ030>032-037>040-046>048-054>057-064-065-161900-
CENTRAL INDIANA

CITY           SKY/WX    TMP DP  RH WIND       PRES   REMARKS
COLUMBUS       SUNNY     57  28  33 NW7       30.33F
GREENWOOD *+   SUNNY     62  39  42 N7        30.35S
6HR MIN TEMP:  45; 6HR MAX TEMP:  62;

INDIANAPOLIS   MOSUNNY   60  37  42 VRB6      30.34F
6HR MIN TEMP:  44; 6HR MAX TEMP:  60;

-EAGLE CREEK   SUNNY     59  35  40 MISG      30.33F
6HR MIN TEMP:  46; 6HR MAX TEMP:  60;

KOKOMO +       MOSUNNY   59  38  45 NW8G16    30.33F
6HR MIN TEMP:  41; 6HR MAX TEMP:  59;

MT COMFORT *+  SUNNY     57  43  58 N8        30.33F
SHELBYVILLE    SUNNY     60  34  37 NW7       30.32F
6HR MIN TEMP:  44; 6HR MAX TEMP:  60;


$$

INZ033-034-041-042-049-050-058-059-161900-
EAST CENTRAL INDIANA

CITY           SKY/WX    TMP DP  RH WIND       PRES   REMARKS
MUNCIE         MOSUNNY   61  37  41 N6        30.32F
6HR MIN TEMP:  47; 6HR MAX TEMP:  61;

RICHMOND +     FLURRIES  57  37  47 NW8       30.31F

$$

INZ060-061-067>069-081>083-085>088-161900-
SOUTHWEST INDIANA

CITY           SKY/WX    TMP DP  RH WIND       PRES   REMARKS
EVANSVILLE     SUNNY     60  39  45 NW8       30.36F
6HR MIN TEMP:  45; 6HR MAX TEMP:  61;

HUNTINGBURG +  SUNNY     59  41  51 CALM      30.35F
6HR MIN TEMP:  45; 6HR MAX TEMP:  60;


$$

INZ062-063-066-070>080-084-089>092-161900-
SOUTH CENTRAL AND SOUTHEAST INDIANA

CITY           SKY/WX    TMP DP  RH WIND       PRES   REMARKS
BLOOMINGTON    SUNNY     60  34  37 N7        30.34F
6HR MIN TEMP:  43; 6HR MAX TEMP:  61;

MADISON *+     MOSUNNY   61  34  36 NW7       30.34F
SEYMOUR +      SUNNY     63  39  42 NW6       30.33F

$$





USA.gov is the U.S. government's official web portal to all federal, state and local government web resources and services.